Other Surface Observations
Issued by NWS

Current Version | Previous Version | Text Only | Print | Product List | Glossary On
Versions: 1 2 3 4 5 6 7 8 9 10 11 12 13 14 15 16 17 18 19 20 21 22 23 24 25 26 27 28 29 30 31 32 33 34 35 36 37 38 39 40 41 42 43 44 45 46 47 48 49 50
000
SXUS52 KTAE 251403
OSOTAE
OSOTAE
North Florida/South Alabama/Southwest Georgia Weather Roundup
National Weather Service Tallahassee Florida
1000 AM EDT SUN AUG 25 2019

Note: "fair" indicates few or no clouds below 12,000 feet with no
significant weather and/or obstructions to visibility.

!FLZ017-115-028-034-025-251500
...North Florida...

CITY           SKY/WX    TMP DP  RH WIND       PRES   REMARKS
TALL INTL ARPT CLOUDY    79  77  94 E7        30.01R
FSU LOVE BLDG  NOT AVBL
APALACHICOLA   FAIR      84  76  76 E6        29.98R HX  93
PERRY          CLOUDY    81  79  94 NE7       30.02R
CROSS CITY     FAIR      83  76  80 E7        30.00R HX  91
JACKSONVILLE   PTSUNNY   82  75  79 N12       30.00R
$$

!FLZ112-006-005-002-011-251500
...Florida Panhandle...

CITY           SKY/WX    TMP DP  RH WIND       PRES   REMARKS
MARIANNA       CLOUDY    77  76  96 E9        30.00S
BONIFAY        PTSUNNY   81  74  79 E7        30.01S
PANAMA CITY NW SUNNY     82  73  74 E7        29.98S
TYNDALL AFB    FAIR      82  76  79 NE6       29.97S HX  90
TYND DRONE APT FAIR      84  76  77 E5        29.98S HX  93
DE FUNIAK SPR  FAIR      80  74  80 E5        30.00F
EGLIN AFB      FAIR      83  76  79 NE6       29.97S HX  90
DESTIN         FAIR      83  76  79 E7        29.97S HX  91
HURLBURT       MOSUNNY   84  76  76 E3        29.96S HX  93
CRESTVIEW      FAIR      82  75  79 E5        29.99S
PENSACOLA      FAIR      84  79  85 E6        29.97S HX  96
$$

!ALZ063-066-251500
...South Alabama...

CITY           SKY/WX    TMP DP  RH WIND       PRES   REMARKS
DOTHAN         CLOUDY    76  73  91 E10       30.05S FOG
OZARK CAIRNS   PTSUNNY   78  74  85 E6        30.01S
FT RUCKER HELI CLOUDY    77  74  92 E6        30.01S
RUCKER HELI 3  PTSUNNY   78  74  86 SE10      30.00S
RUCKER HELI 2  CLOUDY    77  77  99 E7        30.00F
FLORALA APT    PTSUNNY   80  72  76 E9        30.01F
ANDALUSIA      FAIR      83  73  72 SE9       30.00S
TROY           CLOUDY    75  75 100 E8        30.03R
EUFALA         NOT AVBL
MOBILE         PTSUNNY   86  76  71 E6        29.97S HX  96
$$

!GAZ120>161-251500
...Southwest and South Central Georgia...

CITY           SKY/WX    TMP DP  RH WIND       PRES   REMARKS
THOMASVILLE    CLOUDY    77  73  88 E8        30.04S
BAINBRIDGE     CLOUDY    80  76  89 E10       30.02S
MOODY AFB      PTSUNNY   77  77 100 NE6       30.02R
VALDOSTA       CLOUDY    78  74  87 NE8       30.03R
MOULTRIE       CLOUDY    75  72  88 E7        30.05R
BLAKELY        CLOUDY    73  70  88 E6        30.03S
ALBANY         CLOUDY    75  72  90 NE13      30.06R
TIFTON         CLOUDY   N/A N/A N/A NE6       30.05R
FITZGERALD     CLOUDY    73  72  97 NE7       30.08S
CORDELE        CLOUDY    71  69  93 NE8       30.08S
AMERICUS       CLOUDY    72  70  94 E7G16     30.09R
HOMERVILLE     CLOUDY    75  72  88 NE8       30.04R
$$

!GMZ750-755-770-775-251500
...Coastal and Buoy Obs...

STATION/POSITION TIME  TEMP    WIND        PRES    VSBY  WAVE
                       AIR SEA DIR/SP/G                  HT/PER
                 (UTC) (F)     (DEG/KT/KT) (MB)    (MI)  (FT/S)
KEATON BEACH     1300   78      50/  7/  9 1015.5R
CEDAR KEY        1300   80      60/  9/ 11 1015.5R
C TOWER          1300   83      70/  7/  7 1015.0R
APALACHICOLA BUO 1340   85      50/  4/  6 1015.2R
PANAMA CITY BUOY 1340      87   50/  8/  8 1014.8R
MOBILE BUOY      1340   85 87  160/  4/  8 1014.5R
ORANGE BCH AL BU 1340   84 86   80/  6/  8 1014.8R
$$



USA.gov is the U.S. government's official web portal to all federal, state and local government web resources and services.